Flag for India Weather past 2 weeks in Pudukkottai, Tamil Nadu, India

Now
88 °F

Passing clouds.


Feels Like: 98 °F
Forecast: 78 / 96 °F
Wind: 10 mph from South

Location: Tiruchchirapalli

Current Time: Jul 31, 2015 at 9:14:31 PM

Latest Report: Jul 31, 2015 at 8:40 PM


Visibility: 4 mi

Pressure: 29.77 "Hg

Humidity: 66%

Dew point: 75 °F

Location of PudukkottaiLocation

Historic Weather in Pudukkottai — Graph

°F

Pudukkottai temperature yesterday

Maximum temperature yesterday: 102 °F (at 3:10 PM)
Minimum temperature yesterday: 81 °F (at 5:10 AM)
Average temperature yesterday: 90 °F

Past Weeks' High & Low Weather Summary

 TemperatureHumidityPressure
High104 °F (Jul 29, 3:10 PM)94% (Jul 23, 9:40 PM)29.86 "Hg (Jul 23, 9:40 PM)
Low77 °F (Jul 23, 9:40 PM)28% (Jul 29, 3:10 PM)29.59 "Hg (Jul 17, 3:10 PM)
Average89 °F55%29.73 "Hg
* Reported Jul 16 7:40 PM — Jul 31 7:40 PM, Pudukkottai, Weather by CustomWeather, © 2015

Note: Actual official high and low records may vary slightly from our data, if they occured in-between our weather recording intervals... More about our weather records

Advertising

Pudukkottai weather history for previous 24 hours

 ConditionsComfort  
Time TempWeatherWind HumidityBarometerVisibility
7:40 PM
Fri, Jul 31
90 °FPassing clouds.10 mph63%29.74 "Hg4 mi
7:10 PM91 °FPassing clouds.10 mph59%29.74 "Hg4 mi
6:40 PM91 °FScattered clouds.9 mph59%29.71 "Hg4 mi
6:10 PM99 °FScattered clouds.8 mph44%29.68 "Hg4 mi
5:40 PM100 °FScattered clouds.6 mph35%29.68 "HgN/A
5:10 PM100 °FPassing clouds.9 mph35%29.68 "HgN/A
4:40 PM102 °FPassing clouds.12 mph33%29.68 "HgN/A
4:10 PM102 °FPassing clouds.8 mph33%29.68 "HgN/A
3:40 PM104 °FPassing clouds.8 mph31%29.68 "HgN/A
3:10 PM104 °FPassing clouds.8 mph31%29.68 "HgN/A
2:40 PM102 °FPassing clouds.13 mph33%29.71 "HgN/A
2:10 PM102 °FPassing clouds.9 mph33%29.71 "HgN/A
1:40 PM100 °FPassing clouds.9 mph35%29.71 "HgN/A
12:40 PM99 °FPassing clouds.9 mph37%29.77 "HgN/A
12:10 PM97 °FPassing clouds.12 mph39%29.77 "HgN/A
11:40 AM97 °FPassing clouds.9 mph39%29.80 "HgN/A
11:10 AM95 °FPassing clouds.9 mph44%29.80 "HgN/A
10:40 AM93 °FPassing clouds.9 mph47%29.80 "HgN/A
10:10 AM91 °FPassing clouds.9 mph49%29.80 "HgN/A
9:40 AM90 °FPassing clouds.9 mph52%29.80 "Hg4 mi
9:10 AM88 °FPassing clouds.14 mph55%29.80 "Hg4 mi
8:10 AM82 °FPassing clouds.12 mph66%29.80 "Hg4 mi
7:40 AM82 °FPassing clouds.9 mph66%29.80 "Hg4 mi
7:10 AM81 °FPassing clouds.7 mph70%29.80 "Hg4 mi
6:40 AM81 °FPassing clouds.6 mph70%29.77 "Hg4 mi
6:10 AM81 °FPassing clouds.6 mph70%29.77 "Hg4 mi
5:40 AM81 °FPassing clouds.7 mph70%29.77 "Hg4 mi
5:10 AM82 °FPassing clouds.9 mph66%29.77 "Hg4 mi
4:40 AM82 °FPassing clouds.9 mph62%29.74 "Hg4 mi
4:10 AM82 °FPassing clouds.12 mph62%29.74 "Hg4 mi
3:10 AM82 °FPassing clouds.9 mph62%29.74 "Hg4 mi
2:40 AM82 °FPassing clouds.9 mph62%29.74 "Hg4 mi
2:10 AM84 °FPassing clouds.9 mph66%29.77 "Hg4 mi
1:40 AM84 °FPassing clouds.5 mph70%29.77 "Hg4 mi
1:10 AM84 °FPassing clouds.5 mph70%29.77 "Hg4 mi
12:40 AM84 °FPassing clouds.5 mph70%29.77 "Hg4 mi
11:40 PM
Thu, Jul 30
84 °FPassing clouds.5 mph70%29.80 "Hg4 mi
11:10 PM86 °FPassing clouds.5 mph70%29.80 "Hg4 mi
10:40 PM86 °FPassing clouds.5 mph70%29.80 "Hg4 mi
9:40 PM88 °FPassing clouds.6 mph66%29.80 "Hg4 mi
9:10 PM88 °FPassing clouds.7 mph66%29.77 "Hg4 mi
Weather by CustomWeather, © 2015

See weather overviewHow to use our weather pages